Barksdale AFB, LA

6:24 AM CDT on October 18, 2017 (GMT -0500)
Barksdale Air Force Base

Weather History for KBAD - October, 2013

Change the Weather History Date:

Thursday, October 31, 2013

  Actual Average Record
Temperature  
Mean Temperature 67 °F -  
Max Temperature 75 °F 69 °F 87 °F (2016)
Min Temperature 58 °F 49 °F 39 °F (2011)
Cooling Degree Days 2    
Growing Degree Days 17 (Base 50)    
Moisture  
Dew Point 65 °F    
Average Humidity 88    
Maximum Humidity 100    
Minimum Humidity 41    
Precipitation  
Precipitation 1.46 in - - ()
Sea Level Pressure  
Sea Level Pressure 29.77 in    
Wind  
Wind Speed 13 mph (SSW)    
Max Wind Speed 21 mph    
Max Gust Speed 28 mph    
Visibility 9 miles    
Events Rain , Thunderstorm    
Averages and records for this station are not official NWS values.
T = Trace of Precipitation, MM = Missing Value Source: NWS Daily Summary

Daily Weather History Graph

Daily Weather History Graph

Search for Another Location

Airport or City:

Trip Planner

Search our weather history database for the weather conditions in past years. The results will help you decide how hot, cold, wet, or windy it might be!

Date:

Astronomy

Oct. 31, 2013 Rise Set
Actual Time 7:31 AM CDT 6:24 PM CDT
Civil Twilight 7:05 AM CDT 6:50 PM CDT
Nautical Twilight 6:36 AM CDT 7:19 PM CDT
Astronomical Twilight 6:08 AM CDT 7:47 PM CDT
Moon 4:31 AM CDT (10/31) 4:35 PM CDT (10/31)
Length of Visible Light 11h 44m
Length of Day
10h 53m
Waning Crescent, 10% of the Moon is Illuminated
Oct 31
Waning Crescent
Nov 3
New
Nov 9
First Quarter
Nov 17
Full
Nov 25
Last Quarter

Hourly Weather History & Observations

Time (CDT) Temp. Dew Point Humidity Pressure Visibility Wind Dir Wind Speed Gust Speed Precip Events Conditions
12:36 AM 69.8 °F 68.0 °F 94% 29.84 in 10.0 mi SSE 20.7 mph 26.5 mph N/A   Overcast
12:58 AM 69.6 °F 69.1 °F 98% 29.83 in 10.0 mi SSE 20.7 mph - 0.00 in Rain , Thunderstorm Light Rain
1:04 AM 69.8 °F 68.0 °F 94% 29.83 in 10.0 mi SSE 19.6 mph 27.6 mph N/A Rain , Thunderstorm Light Thunderstorms and Rain
1:58 AM 69.8 °F 69.8 °F 100% 29.82 in 5.0 mi SSE 16.1 mph - 0.05 in Rain Light Rain
2:58 AM 70.2 °F 70.2 °F 100% 29.78 in 5.0 mi South 10.4 mph - 0.07 in Rain Light Rain
3:51 AM 69.8 °F 69.8 °F 100% 29.78 in 2.0 mi NW 18.4 mph 25.3 mph N/A Rain Heavy Rain
3:58 AM 69.8 °F 69.8 °F 100% 29.79 in 1.8 mi WNW 10.4 mph - 0.12 in Rain Heavy Rain
4:27 AM 69.8 °F 69.8 °F 100% 29.77 in 1.5 mi South 9.2 mph - N/A Rain , Thunderstorm Heavy Thunderstorms and Rain
4:46 AM 69.8 °F 69.8 °F 100% 29.76 in 10.0 mi South 8.1 mph - N/A   Overcast
4:58 AM 68.9 °F 68.9 °F 100% 29.76 in 6.0 mi South 6.9 mph - 0.84 in Rain Light Rain
5:58 AM 68.9 °F 68.9 °F 100% 29.75 in 6.0 mi SE 5.8 mph - 0.13 in Rain Light Rain
6:35 AM 69.8 °F 69.8 °F 100% 29.75 in 5.0 mi South 8.1 mph - N/A Rain Light Rain
6:58 AM 69.3 °F 69.3 °F 100% 29.73 in 6.0 mi South 11.5 mph - 0.14 in Rain Light Rain
7:58 AM 69.3 °F 69.3 °F 100% 29.72 in 10.0 mi SSE 8.1 mph - 0.09 in Rain Light Rain
8:58 AM 69.3 °F 69.1 °F 99% 29.72 in 10.0 mi SSE 10.4 mph - 0.00 in Rain Light Rain
9:33 AM 69.8 °F 69.8 °F 100% 29.75 in 10.0 mi SSW 9.2 mph - N/A Rain Light Rain
9:53 AM 69.8 °F 69.8 °F 100% 29.76 in 10.0 mi SSW 5.8 mph - N/A Rain Light Rain
9:58 AM 70.2 °F 70.2 °F 100% 29.77 in 10.0 mi South 8.1 mph - 0.01 in Rain Light Rain
10:11 AM 69.8 °F 69.8 °F 100% 29.75 in 10.0 mi South 8.1 mph - N/A Rain Light Rain
10:58 AM 70.3 °F 70.3 °F 100% 29.76 in 10.0 mi SSW 6.9 mph - N/A Rain Light Rain
11:53 AM 69.8 °F 69.8 °F 100% 29.75 in 10.0 mi SSW 9.2 mph - N/A   Overcast
11:58 AM 70.9 °F 70.9 °F 100% 29.76 in 10.0 mi SSW 9.2 mph - 0.01 in   Mostly Cloudy
12:28 PM 71.6 °F 71.6 °F 100% 29.75 in 10.0 mi SW 10.4 mph - N/A   Mostly Cloudy
12:58 PM 71.4 °F 71.2 °F 99% 29.75 in 10.0 mi SW 11.5 mph - N/A   Overcast
1:58 PM 72.1 °F 69.1 °F 90% 29.73 in 10.0 mi SW 13.8 mph 19.6 mph N/A   Mostly Cloudy
2:58 PM 72.7 °F 66.4 °F 81% 29.72 in 10.0 mi SW 13.8 mph 18.4 mph N/A   Scattered Clouds
3:58 PM 74.3 °F 65.7 °F 74% 29.71 in 10.0 mi SW 10.4 mph - N/A   Clear
4:58 PM 75.2 °F 65.5 °F 72% 29.72 in 10.0 mi SW 9.2 mph - N/A   Clear
5:34 PM 75.2 °F 59.0 °F 57% 29.72 in 10.0 mi West 15.0 mph 19.6 mph N/A   Clear
5:58 PM 73.8 °F 48.7 °F 41% 29.74 in 10.0 mi West 12.7 mph - N/A   Clear
6:58 PM 66.7 °F 47.7 °F 50% 29.78 in 10.0 mi West 5.8 mph - N/A   Clear
7:58 PM 66.0 °F 47.5 °F 51% 29.81 in 10.0 mi West 9.2 mph - N/A   Clear
8:58 PM 63.3 °F 48.2 °F 58% 29.83 in 10.0 mi WNW 6.9 mph - N/A   Clear
9:58 PM 59.2 °F 48.0 °F 66% 29.85 in 10.0 mi WNW 6.9 mph - N/A   Clear
10:58 PM 59.4 °F 49.3 °F 69% 29.88 in 10.0 mi WNW 5.8 mph - N/A   Clear
11:58 PM 58.3 °F 49.5 °F 72% 29.89 in 10.0 mi WNW 4.6 mph - N/A   Clear